Flag for Germany Weather past 2 weeks in Ingelheim am Rhein, Rhineland-Palatinate, Germany

Now
68 °F

Partly sunny.


Feels Like: 68 °F
Forecast: 57 / 74 °F
Wind: 6 mph from East

Location: Wiesbaden Airport

Current Time: May 4, 2015 at 8:19:54 PM

Latest Report: May 4, 2015 at 7:58 PM


Visibility: N/A

Pressure: 29.73 "Hg

Humidity: 64%

Dew point: 55 °F

Location of Ingelheim am RheinLocation

Historic Weather in Ingelheim am Rhein — Graph

°F

Ingelheim am Rhein temperature yesterday

Maximum temperature yesterday: 61 °F (at 2:58 PM)
Minimum temperature yesterday: 51 °F (at 1:58 AM)
Average temperature yesterday: 57 °F

Past Weeks' High & Low Weather Summary

 TemperatureHumidityPressure
High74 °F (Apr 21, 3:58 PM)100% (Apr 26, 1:58 AM)30.84 "Hg (Apr 26, 1:58 AM)
Low34 °F (Apr 29, 4:58 AM)23% (Apr 21, 2:58 PM)29.57 "Hg (Apr 27, 6:58 AM)
Average54 °F71%29.95 "Hg
* Reported Apr 20 4:55 AM — May 4 6:58 PM, Ingelheim am Rhein, Weather by CustomWeather, © 2015

Note: Actual official high and low records may vary slightly from our data, if they occured in-between our weather recording intervals... More about our weather records

Advertising

Ingelheim am Rhein weather history for previous 24 hours

 ConditionsComfort  
Time TempWeatherWind HumidityBarometerVisibility
6:58 PM
Mon, May 4
70 °FPassing clouds.5 mph57%29.75 "HgN/A
5:58 PM72 °FSunny.3 mph50%29.78 "HgN/A
4:58 PM72 °FSunny.5 mph52%29.80 "HgN/A
3:58 PM71 °FPassing clouds.6 mph55%29.80 "HgN/A
2:58 PM70 °FPassing clouds.9 mph53%29.82 "HgN/A
1:59 PM70 °FScattered clouds.10 mph57%29.83 "HgN/A
12:58 PM68 °FPartly sunny.12 mph60%29.85 "HgN/A
11:58 AM66 °FPartly sunny.12 mph66%29.85 "HgN/A
10:58 AM65 °FBroken clouds.10 mph74%29.85 "HgN/A
10:00 AM61 °FLight rain. Broken clouds.6 mph100%29.84 "HgN/A
9:58 AM61 °FScattered clouds.5 mph100%29.84 "HgN/A
9:01 AM59 °FPartly sunny.6 mph100%29.84 "HgN/A
8:58 AM59 °FScattered clouds.5 mph100%29.84 "HgN/A
7:58 AM55 °FScattered clouds.1 mph100%29.83 "HgN/A
6:58 AM53 °FFog.5 mph100%29.81 "Hg4 mi
5:58 AM54 °FFog.No wind100%29.80 "Hg1 mi
5:04 AM54 °FFog.No wind100%29.79 "Hg1 mi
3:58 AM55 °FPassing clouds.6 mph100%29.78 "HgN/A
3:04 AM55 °FFog.5 mph100%29.77 "Hg2 mi
1:58 AM57 °FClear.6 mph100%29.76 "HgN/A
1:04 AM59 °FLow clouds.3 mph100%29.74 "HgN/A
12:58 AM61 °FLow clouds.5 mph100%29.74 "HgN/A
11:58 PM
Sun, May 3
61 °FLow clouds.2 mph100%29.73 "HgN/A
10:58 PM60 °FOvercast.3 mph100%29.72 "HgN/A
9:58 PM61 °FOvercast.5 mph100%29.70 "HgN/A
9:04 PM61 °FDrizzle. Mostly cloudy.5 mph100%29.69 "HgN/A
8:58 PM61 °FMostly cloudy.5 mph100%29.69 "HgN/A
Weather by CustomWeather, © 2015

See weather overviewHow to use our weather pages